Location: Unspecified
(0.0000°N, 0.0000°E)
Time: 12:34:51
(UTC+00:00)

Transit 2A - Pass Details

Date: 29 May 2019
Orbit: 593 x 966 km, 66.7° (Epoch: 16 June)

Event Time Altitude Azimuth Distance (km) Brightness Sun altitude
Rises 03:32:02 0° 172° (S) 3,272 - -33.4°
Reaches altitude 10° 03:34:58 10° 155° (SSE) 2,411 - -32.8°
Exits shadow 03:36:22 15° 143° (SE) 2,100 8.3 -32.5°
Maximum altitude 03:39:03 21° 108° (ESE) 1,856 8.4 -31.9°
Drops below altitude 10° 03:43:22 10° 62° (ENE) 2,576 9.6 -30.9°
Sets 03:46:36 0° 46° (NE) 3,565 10.5 -30.2°
